Location: Wellington
(41.3000°S, 174.7830°E)
Time: 01:19:52
(UTC+13:00)

ISS - Pass Details

Date: 01 February 2019
Orbit: 403 x 411 km, 51.6° (Epoch: 21 February)

Event Time Altitude Azimuth Distance (km) Brightness Sun altitude
Exits shadow 03:47:50 16° 76° (ENE) 1,172 -1.3 -23.7°
Drops below altitude 10° 03:49:06 10° 96° (E) 1,494 -0.5 -23.6°
Sets 03:51:34 0° 113° (ESE) 2,362 1.0 -23.3°
